Wind_Speed
15 18 13 14 5 8 16 5 7 5 4 12 6 6 18 20 16 6 9 11 10 15 12 13 12 10 8 6 6 8 9 10 12 11 11 10 11 12 13 14 13 13 13 12 10 9 7 6 5
14 15 11 6 7 11 4 8 10 11 11 6 2 4 16 17 15 13 12 10 7 15 10 10 11 10 7 6 6 7 8 9 11 11 11 12 12 13 13 14 14 13 13 12 12 10 8 6 5
15 14 6 6 11 11 7 11 8 8 3 1 1 12 9 10 14 14 12 13 14 16 10 10 9 10 9 7 7 7 8 9 10 11 12 13 13 14 15 15 15 14 13 11 12 11 10 7 6
9 9 6 8 14 9 11 10 4 6 4 3 4 13 13 13 12 14 12 15 14 14 9 6 7 10 9 9 8 8 8 8 10 12 13 13 14 15 16 16 16 16 15 13 12 13 12 11 9
13 7 10 13 19 12 5 8 6 4 8 6 6 19 16 16 13 12 16 14 14 12 8 8 8 9 9 9 9 9 9 9 9 11 13 14 15 16 17 17 17 18 17 17 16 14 14 13 12
7 10 10 13 6 11 6 8 4 3 5 7 5 13 13 13 12 9 14 13 12 12 5 6 2 6 8 9 10 10 10 10 10 10 12 14 16 17 18 19 19 19 19 19 19 17 16 15 14
12 11 14 17 17 8 10 6 1 3 2 10 6 2 10 14 10 7 9 8 10 9 9 5 5 3 5 8 9 11 11 11 12 12 12 13 15 17 18 20 21 21 21 19 19 19 18 17 16
6 10 16 15 10 13 11 6 7 4 8 1 5 4 9 10 7 7 7 6 8 7 7 6 5 7 6 6 8 10 11 12 12 13 13 14 15 17 19 21 22 23 23 22 21 21 20 20 19
12 9 11 12 12 11 6 4 10 5 6 4 0 11 11 11 10 9 7 8 9 14 22 18 12 7 3 6 9 6 9 12 12 13 13 14 16 16 20 22 24 25 25 25 24 23 23 22 21
7 9 11 9 10 8 4 4 4 1 10 6 7 9 13 10 13 13 12 15 21 25 22 20 14 12 10 7 10 10 7 8 5 6 7 11 15 15 17 20 23 26 25 26 26 26 26 23 23
12 13 8 4 8 9 8 3 6 2 7 8 7 6 10 7 11 11 14 13 15 18 21 19 18 14 17 15 14 4 4 0 2 3 5 9 13 14 18 21 22 24 25 26 29 29 29 30 29
7 14 10 10 4 5 5 7 7 7 5 7 7 9 6 7 8 10 11 12 13 16 17 19 18 15 15 17 14 12 10 9 5 5 8 9 12 13 15 17 21 19 22 25 32 27 33 35 31
10 14 12 4 7 8 9 10 10 11 5 5 12 8 7 7 9 11 10 11 12 15 17 17 17 17 17 15 14 13 11 9 9 7 7 9 12 15 14 14 16 19 20 26 30 29 31 32 32
14 10 13 11 11 11 11 12 11 11 9 8 7 13 8 6 7 10 10 10 12 14 15 16 16 16 14 14 15 12 13 13 11 10 12 12 12 13 15 16 16 17 16 20 25 31 31 29 22
9 14 16 18 16 17 10 11 19 13 14 8 9 13 10 6 8 10 9 10 11 13 13 16 16 18 15 13 12 14 16 14 14 15 14 14 14 16 16 16 17 19 22 22 21 19 22 30 24
13 14 14 15 19 7 3 12 18 13 13 9 9 14 11 9 8 9 8 9 12 13 14 14 16 17 16 13 10 11 13 11 13 14 15 15 17 16 15 17 17 17 18 20 18 17 16 15 17
13 12 13 11 13 9 11 9 7 12 11 9 8 8 12 10 8 8 7 9 11 12 14 16 17 18 17 17 14 13 12 13 12 15 18 18 17 19 17 17 17 18 19 19 18 19 18 14 10
13 11 11 10 12 10 10 14 14 12 12 14 9 8 13 10 10 8 6 9 12 13 14 15 17 18 16 16 15 16 14 13 14 16 18 17 21 20 19 18 18 19 19 20 21 20 18 16 17
14 14 15 15 17 14 14 15 13 16 19 17 11 12 13 11 11 8 6 8 10 12 13 14 15 16 17 16 16 15 14 14 12 16 15 18 21 21 20 21 20 20 19 19 18 18 19 17 14
12 14 16 17 16 15 18 18 17 19 19 16 11 7 14 14 10 7 5 7 8 10 12 13 15 16 17 14 13 13 12 12 14 15 15 19 20 20 20 20 20 21 22 21 22 20 20 19 17
14 15 16 18 16 15 17 22 21 23 20 8 3 3 15 13 12 10 6 2 5 8 10 11 14 15 17 17 16 16 14 14 18 18 18 21 19 19 20 19 19 21 20 20 21 21 20 19 21
18 16 15 11 9 11 12 15 15 15 9 9 9 8 10 11 12 12 10 7 6 7 8 10 12 14 15 17 17 17 16 14 17 18 21 19 20 20 21 21 22 22 21 20 21 20 19 18 18
19 8 7 11 12 13 17 10 19 15 17 17 14 11 11 10 10 10 8 11 7 6 8 9 11 13 14 15 16 16 15 15 15 18 18 20 20 21 22 25 24 24 21 20 21 21 19 17 15
8 4 11 13 10 12 17 14 18 14 7 18 17 15 14 14 13 12 12 10 9 6 7 8 10 11 12 13 14 15 15 15 16 19 18 20 20 21 23 24 23 21 21 22 21 20 19 19 18
8 9 5 6 9 11 17 12 10 14 3 13 19 17 15 14 13 13 11 12 9 6 6 8 9 11 11 12 14 15 15 15 16 17 18 19 20 21 22 24 23 21 22 21 21 20 19 19 18
17 13 7 9 10 14 21 13 9 8 8 13 16 17 17 14 13 12 12 12 11 7 6 7 9 10 10 12 13 14 15 14 15 16 16 17 18 19 21 22 22 22 22 22 22 21 20 20 20
13 12 14 12 13 12 14 21 18 18 15 9 9 10 16 16 14 13 14 13 12 11 7 7 9 9 10 11 11 12 13 14 14 15 16 17 18 18 20 22 23 23 23 24 23 21 21 21 21
8 10 8 4 3 12 13 16 8 11 8 4 2 5 11 15 16 13 13 15 12 12 9 7 8 10 9 9 10 10 11 11 12 13 15 16 16 18 19 21 23 24 27 27 25 24 22 23 23
12 12 11 9 9 11 13 11 8 10 8 4 6 8 18 16 14 14 15 17 15 11 11 8 7 9 8 8 8 8 9 9 10 12 14 16 16 18 20 21 23 24 26 28 26 24 22 23 24
3 11 11 5 6 2 4 8 13 7 2 10 15 8 13 4 13 13 16 19 15 12 11 7 7 8 7 6 7 7 7 8 10 12 13 15 16 18 19 21 24 25 27 28 26 25 24 25 25
Wind_Direction
314 304 272 277 242 224 252 79 49 43 102 57 33 353 70 54 37 75 62 71 109 122 153 159 162 158 151 147 160 176 184 188 190 191 191 191 190 189 184 180 176 175 178 183 178 176 175 175 170
318 308 274 277 255 271 95 75 64 38 36 84 163 210 76 58 67 75 62 67 93 128 140 161 172 168 166 155 154 180 190 201 204 206 205 202 199 200 199 195 190 187 190 195 191 188 192 191 191
294 277 283 227 247 267 49 62 52 77 124 231 143 47 39 75 53 78 67 67 76 96 115 166 183 179 178 178 173 185 201 214 220 219 215 213 209 208 208 206 203 200 201 206 203 200 205 212 215
290 251 235 252 275 59 51 74 360 132 99 9 6 92 75 52 70 72 61 77 73 85 104 136 174 182 186 193 196 197 204 217 227 231 227 224 220 217 216 214 212 210 208 214 224 219 223 226 229
257 270 264 251 263 107 65 63 339 47 51 348 325 106 89 67 62 64 76 63 78 65 45 82 157 179 190 203 210 211 216 220 224 227 231 229 229 226 224 223 221 219 218 216 227 232 227 229 236
280 239 270 263 61 99 110 86 320 356 143 56 45 91 89 70 51 30 66 65 56 70 88 42 108 187 195 207 216 223 224 230 231 230 233 234 234 230 229 227 227 227 229 229 230 233 233 236 235
258 286 279 291 296 149 128 117 207 3 330 76 332 161 112 70 29 9 91 73 79 71 63 25 20 354 237 221 225 228 230 232 236 237 237 239 239 237 234 231 232 231 231 232 236 233 236 238 239
298 289 284 277 271 79 98 129 85 271 62 337 353 6 62 42 21 13 46 109 98 77 77 58 15 344 337 315 252 246 243 241 241 241 241 241 243 241 237 235 234 237 236 233 236 239 237 241 241
276 268 263 278 329 94 112 195 133 75 284 87 162 55 52 26 26 23 349 47 48 60 57 59 47 5 285 286 273 268 260 250 250 250 251 250 245 247 247 240 237 237 237 234 235 239 240 239 240
238 261 276 20 17 61 92 308 62 313 209 179 189 81 57 24 29 36 15 29 34 31 23 19 21 17 3 289 243 260 272 263 267 285 268 271 261 250 243 249 249 242 240 239 238 240 240 239 238
253 246 311 30 31 351 338 347 272 294 282 46 60 48 62 44 57 37 38 37 24 24 19 10 359 359 359 355 346 330 27 211 194 289 289 276 274 266 260 261 258 252 247 241 241 238 236 235 235
270 272 287 300 89 301 306 304 309 287 285 77 94 75 54 53 68 43 50 44 34 35 22 14 6 3 353 7 353 8 39 27 2 341 309 307 302 296 288 279 270 263 253 251 245 241 240 236 231
263 269 279 228 267 260 272 262 267 261 202 128 115 95 81 51 42 67 50 39 51 44 28 18 14 14 13 359 6 6 20 29 20 4 319 311 295 298 304 300 292 273 265 255 258 250 242 233 228
309 308 293 270 251 243 250 253 235 239 175 178 200 137 107 72 49 49 44 46 38 42 30 21 18 18 21 22 16 14 11 18 13 8 7 1 356 337 319 313 306 306 298 286 271 264 262 265 266
288 281 270 254 242 249 247 260 243 227 150 193 238 140 118 96 67 51 39 48 46 54 46 31 27 21 23 32 35 34 27 25 30 28 19 14 5 358 345 341 337 330 311 314 306 303 301 299 322
260 262 263 264 212 146 179 284 300 176 158 202 239 144 143 102 68 55 45 50 54 48 49 39 32 29 28 26 29 39 39 40 39 40 21 23 9 10 360 0 355 340 342 337 328 335 324 338 268
218 250 257 243 168 164 192 284 75 154 203 211 224 197 145 125 103 69 61 62 61 56 50 45 35 32 27 29 27 31 27 30 39 24 11 13 7 8 6 2 354 353 345 345 347 342 340 350 316
264 261 259 274 173 203 245 253 254 278 250 229 215 249 135 133 98 81 60 58 58 56 52 49 40 34 35 30 28 26 21 29 23 29 19 16 13 6 8 360 360 358 353 352 350 343 339 336 319
284 276 281 285 300 283 267 268 262 275 267 262 215 225 138 119 110 104 93 62 60 51 51 48 43 35 33 30 25 14 12 15 24 23 18 12 10 6 7 3 1 356 355 350 349 347 343 337 332
286 275 273 280 277 273 284 283 280 269 263 262 240 100 119 121 142 136 122 59 45 42 38 37 36 33 29 23 21 13 9 10 28 14 10 2 6 5 4 2 1 358 354 350 351 355 341 329 334
251 259 271 275 286 293 296 278 265 253 253 201 125 220 132 148 159 153 140 100 61 49 39 43 40 38 32 29 23 17 17 15 12 5 6 2 0 3 3 4 7 1 356 350 349 350 360 339 331
264 273 288 299 286 269 271 286 273 291 195 158 165 168 138 153 153 157 152 127 92 74 64 56 50 42 33 30 29 30 22 14 7 3 1 358 3 3 6 7 3 359 356 351 347 341 342 344 333
262 290 301 279 275 285 265 260 276 271 267 174 166 163 161 149 155 142 139 127 107 98 82 66 59 47 38 36 35 32 27 15 7 9 2 3 2 4 4 1 360 353 345 342 339 336 334 326 314
280 280 268 252 250 254 266 252 267 272 336 178 161 168 166 163 165 140 136 140 126 110 94 77 74 57 45 42 40 37 30 23 18 12 9 2 3 0 359 356 351 348 344 340 335 328 326 321 313
226 246 269 248 233 242 259 273 261 319 180 156 169 169 169 166 154 147 162 158 132 116 101 92 76 63 52 48 44 37 32 28 27 19 9 9 2 360 355 355 350 348 343 341 336 331 325 317 311
210 225 230 275 279 295 304 284 281 329 84 121 166 171 163 166 159 160 150 137 146 132 101 90 84 71 60 53 49 43 39 35 32 25 19 13 6 358 356 355 354 351 347 348 345 339 330 325 318
248 251 269 283 284 285 273 274 269 274 245 161 154 165 161 168 144 163 144 141 145 132 111 98 94 81 66 59 53 48 43 39 37 32 27 17 11 4 3 3 1 359 356 353 349 342 336 331 324
264 294 296 292 265 271 274 278 316 36 33 10 334 248 171 160 157 159 151 143 137 133 125 113 100 88 71 63 55 50 47 44 41 37 30 21 16 12 12 10 9 6 4 1 354 347 342 343 336
244 232 245 277 280 273 280 271 87 36 332 291 288 313 309 155 169 154 158 154 141 139 136 129 103 89 79 69 61 52 49 49 46 42 35 26 20 18 19 15 13 12 8 4 359 351 354 350 343
309 290 277 238 252 222 217 259 288 154 352 351 344 274 230 162 190 154 152 142 144 156 145 130 112 97 87 77 74 65 57 51 51 43 37 32 26 22 20 21 18 16 13 7 2 360 3 358 353
Height
765 763 761 757 774 757 747 738 722 730 734 729 729 736 740 741 750 780 755 754 758 760 762 765 768 771 772 775 778 780 783 785 787 788 790 792 794 795 796 797 798 800 802 804 805 806 807 808 809
765 763 759 756 771 763 748 727 738 735 732 732 734 732 740 758 744 755 757 758 758 759 763 767 769 772 775 777 778 782 783 786 788 789 791 792 794 796 798 799 799 801 803 804 805 806 807 808 808
765 764 763 756 755 758 752 737 737 737 732 733 736 732 743 757 751 757 759 760 760 762 766 768 771 773 776 778 779 782 783 786 788 789 791 793 794 796 798 799 801 802 804 804 805 806 807 808 808
764 756 755 764 754 738 738 739 738 736 735 733 732 753 752 752 756 759 761 761 763 764 768 770 772 774 777 779 780 782 783 785 787 789 791 793 794 796 797 799 800 802 803 804 805 805 806 807 807
762 756 764 759 745 732 732 736 738 742 745 742 736 755 759 757 761 761 762 765 765 768 769 772 773 775 777 779 781 781 783 784 785 787 789 791 793 795 797 798 800 801 802 803 804 804 804 805 806
764 752 767 759 736 733 733 736 742 743 742 746 746 751 760 760 764 764 765 767 769 771 771 773 775 776 777 779 780 782 782 783 784 786 788 789 791 792 794 796 798 799 800 801 801 802 803 803 803
767 762 763 750 740 738 737 736 748 747 746 755 748 757 757 762 766 765 766 769 770 773 774 774 775 777 778 778 780 781 782 782 783 785 786 787 789 790 792 793 795 796 797 797 798 799 800 800 801
757 760 765 752 745 754 741 742 744 750 756 749 749 759 769 765 766 766 766 768 769 772 774 777 778 777 778 778 779 780 781 782 783 784 784 786 787 788 789 790 791 793 793 794 795 796 797 798 798
753 774 768 749 739 750 742 747 743 747 753 752 753 757 764 768 768 768 767 768 769 773 773 773 775 778 779 779 778 778 778 780 782 783 784 785 785 786 786 787 788 788 789 791 792 793 793 792 793
761 766 756 748 746 750 746 747 746 754 751 755 756 758 764 770 772 773 772 772 773 775 776 776 775 775 775 778 776 774 774 776 778 781 783 784 784 784 785 783 784 785 786 788 789 789 789 790 789
755 766 746 746 755 752 750 751 748 757 762 756 763 764 768 771 775 778 780 783 783 783 781 780 779 778 777 776 775 777 775 779 781 783 782 784 784 785 784 783 782 783 784 784 784 784 784 783 783
763 752 747 751 753 757 756 750 756 756 757 758 760 766 772 775 778 782 784 787 790 789 788 786 783 781 780 779 775 774 773 777 778 778 780 782 782 782 781 782 782 783 783 782 777 780 778 777 777
760 755 748 751 754 757 756 758 759 757 752 759 762 771 775 778 779 785 789 790 789 790 791 790 788 785 783 781 779 778 777 778 778 778 781 781 781 780 779 779 779 780 779 778 777 777 772 775 775
753 754 755 751 752 752 759 756 753 749 748 758 762 770 778 782 785 788 791 793 792 793 793 792 791 788 786 785 783 782 781 780 780 782 783 782 781 780 779 778 777 776 775 773 773 770 772 771 756
758 770 759 752 750 753 750 763 756 742 747 758 759 765 778 783 786 791 794 794 794 793 795 794 792 791 790 787 786 786 785 784 783 783 783 783 782 781 780 779 777 775 773 772 769 768 770 768 757
768 764 770 740 735 749 760 769 737 738 747 757 756 764 774 785 790 793 796 796 796 796 796 795 794 792 792 790 789 788 788 788 788 786 785 784 784 781 780 780 778 775 774 771 769 769 770 764 770
758 768 753 745 735 745 757 762 741 741 749 753 753 756 770 781 789 794 798 799 798 799 798 797 795 793 793 792 791 790 790 790 789 788 786 786 784 782 782 781 778 775 774 772 770 768 768 768 763
759 753 745 747 743 746 753 755 747 741 743 745 746 753 765 777 788 796 801 802 802 802 801 799 798 796 794 793 792 792 791 791 790 789 789 788 786 785 784 782 778 777 775 772 770 769 766 764 763
747 753 758 746 734 741 744 746 746 744 742 741 743 748 758 777 790 797 803 804 806 804 801 801 800 798 796 795 795 794 793 792 792 791 791 789 788 787 785 782 781 779 776 775 773 771 768 766 765
761 763 761 748 740 744 747 747 745 742 738 736 737 746 760 775 787 799 805 807 807 806 803 803 801 799 798 797 797 796 794 794 792 793 793 790 790 788 786 784 782 780 778 775 774 773 770 767 765
764 765 760 757 746 744 751 751 744 730 727 733 745 748 758 771 781 792 803 807 809 807 806 805 804 802 801 799 798 796 795 794 794 794 793 793 792 789 788 786 783 782 780 778 775 774 773 769 766
769 750 749 755 762 770 748 760 740 730 733 742 749 752 759 767 776 785 796 802 809 810 808 806 805 804 803 801 799 799 798 799 798 797 795 795 792 791 789 785 784 782 780 779 777 775 774 773 770
760 751 761 762 765 765 759 766 734 727 723 737 748 756 761 768 778 785 793 799 806 810 809 807 806 806 805 803 802 801 801 801 800 799 797 795 795 793 790 787 786 783 781 779 777 775 774 773 772
752 764 763 765 767 777 759 756 737 730 719 720 738 751 758 766 774 783 792 799 805 809 809 808 807 807 808 806 805 804 803 802 801 800 800 798 796 794 792 791 789 786 782 779 776 775 773 772 770
762 769 780 774 770 766 737 735 726 716 713 720 737 746 754 762 770 781 789 796 804 809 810 809 809 809 809 808 807 806 805 804 803 802 802 799 798 797 795 792 789 786 784 779 776 773 772 770 768
757 758 774 781 771 758 737 749 735 714 713 717 727 734 747 760 767 776 783 792 802 807 809 810 810 811 810 809 808 808 807 807 806 806 804 803 802 800 797 794 791 787 784 779 775 772 770 767 765
750 755 744 759 757 765 755 736 721 710 711 721 729 735 745 754 765 774 781 790 799 806 810 810 810 811 811 810 810 810 809 809 808 807 806 805 804 802 799 795 791 787 784 779 775 772 768 765 762
749 745 765 761 788 778 754 743 737 740 739 738 742 745 745 752 764 771 781 788 797 804 809 812 810 809 811 812 811 812 811 811 811 809 808 807 806 804 800 797 792 789 784 779 776 772 768 764 761
749 753 753 756 761 770 769 752 748 755 747 749 755 764 762 748 765 770 778 784 792 802 806 810 811 809 811 812 812 814 814 813 812 810 809 808 807 805 801 798 795 791 786 782 778 774 770 766 761
745 755 754 774 773 781 785 778 742 748 750 759 759 757 754 764 762 772 780 779 789 798 803 808 811 811 811 813 813 815 815 815 813 811 809 808 808 806 803 800 796 792 788 785 781 776 772 768 763